EW9394 Weather Reports


time (UTC)temp
C
wind
direction
speed
KPH
gust
KPH
rain 1hr
cm
rain 24hr
cm
rain mn
cm
humidity
%
barometer
mb
20260904195526 37 126 4.8 9.7 0.00 0.00 0.00 46 1013.9
20260904195026 37 201 4.8 4.8 0.00 0.00 0.00 46 1013.7
20260904194521 36 209 3.2 4.8 0.00 0.00 0.00 48 1013.7
20260904194015 36 150 1.6 3.2 0.00 0.00 0.00 47 1014.3
20260904193510 37 125 4.8 8.0 0.00 0.00 0.00 47 1014.5
20260904193007 36 135 1.6 1.6 0.00 0.00 0.00 47 1014.3
20260904192506 36 193 6.4 9.7 0.00 0.00 0.00 48 1014.4
20260904192003 36 186 4.8 8.0 0.00 0.00 0.00 48 1014.4
20260904191459 35 204 4.8 9.7 0.00 0.00 0.00 49 1014.3
20260904190955 37 165 8.0 11.3 0.00 0.00 0.00 48 1014.6
20260904190450 36 103 3.2 8.0 0.00 0.00 0.00 49 1014.7
20260904185946 36 141 4.8 4.8 0.00 0.00 0.00 49 1014.8
20260904185442 36 180 4.8 4.8 0.00 0.00 0.00 49 1014.7
20260904184937 36 207 3.2 3.2 0.00 0.00 0.00 47 1014.8
20260904184437 36 217 4.8 8.0 0.00 0.00 0.00 48 1014.8
20260904183932 36 142 1.6 3.2 0.00 0.00 0.00 48 1015.0
20260904183427 36 96 4.8 8.0 0.00 0.00 0.00 49 1015.1
20260904182923 36 207 1.6 1.6 0.00 0.00 0.00 48 1015.1
20260904182418 35 184 8.0 9.7 0.00 0.00 0.00 48 1015.1
20260904181913 35 175 4.8 4.8 0.00 0.00 0.00 48 1015.4
20260904181408 35 162 8.0 9.7 0.00 0.00 0.00 49 1015.3
20260904180903 35 190 6.4 9.7 0.00 0.00 0.00 51 1015.5
20260904180359 35 205 4.8 8.0 0.00 0.00 0.00 51 1015.4
20260904175858 35 97 3.2 3.2 0.00 0.00 0.00 51 1015.6
20260904175357 35 191 4.8 4.8 0.00 0.00 0.00 50 1015.6
20260904174856 35 199 1.6 3.2 0.00 0.00 0.00 52 1015.7
20260904174353 35 149 1.6 3.2 0.00 0.00 0.00 51 1015.8
20260904173848 35 104 4.8 4.8 0.00 0.00 0.00 51 1015.9
20260904173344 35 103 4.8 4.8 0.00 0.00 0.00 51 1015.7
20260904172839 34 194 0.0 1.6 0.00 0.00 0.00 55 1016.1
20260904172338 34 200 6.4 9.7 0.00 0.00 0.00 53 1015.8
20260904171833 34 190 6.4 11.3 0.00 0.00 0.00 56 1016.0
20260904171329 33 128 0.0 0.0 0.00 0.00 0.00 59 1016.1
20260904170825 33 164 11.3 12.9 0.00 0.00 0.00 57 1016.2
20260904170320 33 131 3.2 3.2 0.00 0.00 0.00 58 1016.3
20260904165815 33 213 4.8 4.8 0.00 0.00 0.00 57 1016.2
20260904165314 33 171 6.4 8.0 0.00 0.00 0.00 60 1016.3
20260904164809 33 192 4.8 4.8 0.00 0.00 0.00 61 1016.2
20260904164303 33 217 6.4 9.7 0.00 0.00 0.00 60 1016.3
20260904163759 32 182 3.2 4.8 0.00 0.00 0.00 62 1016.2
20260904163254 32 185 1.6 1.6 0.00 0.00 0.00 62 1016.5
20260904162754 32 205 3.2 4.8 0.00 0.00 0.00 63 1016.5
20260904162249 32 187 0.0 1.6 0.00 0.00 0.00 63 1016.6
20260904161744 32 159 1.6 3.2 0.00 0.00 0.00 64 1016.5
20260904161244 32 194 1.6 3.2 0.00 0.00 0.00 66 1016.3
20260904160740 31 183 4.8 4.8 0.00 0.00 0.00 66 1016.4
20260904160236 31 198 1.6 1.6 0.00 0.00 0.00 65 1016.5
20260904155735 31 178 8.0 9.7 0.00 0.00 0.00 67 1016.2
20260904155234 31 201 6.4 9.7 0.00 0.00 0.00 67 1016.5
20260904154733 31 184 1.6 3.2 0.00 0.00 0.00 69 1016.4
20260904154228 31 164 6.4 9.7 0.00 0.00 0.00 69 1016.3
20260904153724 31 191 6.4 11.3 0.00 0.00 0.00 70 1016.3
20260904153219 30 200 4.8 8.0 0.00 0.00 0.00 71 1016.3
20260904152715 30 157 9.7 12.9 0.00 0.00 0.00 71 1016.2
20260904152210 30 196 4.8 8.0 0.00 0.00 0.00 73 1016.0
20260904151705 30 193 4.8 8.0 0.00 0.00 0.00 74 1016.3
20260904151204 29 146 3.2 3.2 0.00 0.00 0.00 76 1016.1
20260904150700 30 173 9.7 11.3 0.00 0.00 0.00 76 1016.1
20260904150155 30 196 1.6 1.6 0.00 0.00 0.00 77 1016.0
20260904145653 29 166 3.2 4.8 0.00 0.00 0.00 79 1015.9
20260904145148 29 200 3.2 4.8 0.00 0.00 0.00 80 1016.1
20260904144644 28 197 4.8 4.8 0.00 0.00 0.00 83 1016.1
20260904144140 28 187 8.0 14.5 0.00 0.00 0.00 83 1016.2
20260904143636 28 150 3.2 3.2 0.00 0.00 0.00 84 1016.3
20260904143132 28 206 6.4 8.0 0.00 0.00 0.00 84 1016.2
20260904142628 27 162 1.6 3.2 0.00 0.00 0.00 85 1016.3
20260904142124 27 194 6.4 9.7 0.00 0.00 0.00 86 1016.3
20260904141618 27 169 1.6 3.2 0.00 0.00 0.00 88 1016.3
20260904141114 27 191 4.8 4.8 0.00 0.00 0.00 88 1016.1
20260904140610 27 157 8.0 12.9 0.00 0.00 0.00 88 1016.3
20260904140103 27 180 6.4 11.3 0.00 0.00 0.00 88 1016.3
20260904135603 27 202 3.2 3.2 0.00 0.00 0.00 89 1016.3
20260904135059 27 204 4.8 4.8 0.00 0.00 0.00 90 1016.2
20260904134555 26 192 1.6 3.2 0.00 0.00 0.00 91 1016.2
20260904134048 26 172 4.8 8.0 0.00 0.00 0.00 92 1016.0
20260904133543 26 161 3.2 4.8 0.00 0.00 0.00 93 1016.0
20260904133040 26 182 1.6 1.6 0.00 0.00 0.00 94 1015.9
20260904132539 25 176 0.0 1.6 0.00 0.00 0.00 94 1015.9
20260904132039 25 202 4.8 4.8 0.00 0.00 0.00 94 1015.9
20260904131539 25 195 1.6 3.2 0.00 0.00 0.00 95 1015.8
20260904131035 25 193 1.6 3.2 0.00 0.00 0.00 95 1015.9
20260904130534 25 170 1.6 4.8 0.00 0.00 0.00 95 1015.8
20260904130029 25 75 3.2 3.2 0.00 0.00 0.00 95 1015.6
20260904125526 25 188 1.6 1.6 0.00 0.00 0.00 95 1015.6
20260904125020 25 206 3.2 4.8 0.00 0.00 0.00 96 1015.6
20260904124516 25 206 0.0 1.6 0.00 0.00 0.00 96 1015.5
20260904124012 25 204 1.6 1.6 0.00 0.00 0.00 96 1015.5
20260904123511 25 188 3.2 3.2 0.00 0.00 0.00 96 1015.5
20260904123007 25 138 1.6 3.2 0.00 0.00 0.00 96 1015.4
20260904122501 25 192 1.6 3.2 0.00 0.00 0.00 96 1015.7
20260904121955 25 189 3.2 3.2 0.00 0.00 0.00 96 1015.6
20260904121452 24 213 4.8 4.8 0.00 0.00 0.00 95 1015.6
20260904120948 24 195 1.6 1.6 0.00 0.00 0.00 95 1015.5
20260904120443 24 170 1.6 1.6 0.00 0.00 0.00 95 1015.1
20260904115938 24 144 1.6 1.6 0.00 0.00 0.00 95 1015.3
20260904115434 24 189 3.2 3.2 0.00 0.00 0.00 95 1015.4
20260904114933 24 157 3.2 4.8 0.00 0.00 0.00 95 1015.2
20260904114428 24 186 1.6 1.6 0.00 0.00 0.00 94 1015.1
20260904113924 24 200 1.6 3.2 0.00 0.00 0.00 94 1015.3
20260904113423 24 194 1.6 1.6 0.00 0.00 0.00 94 1015.2
20260904112922 24 194 0.0 1.6 0.00 0.00 0.00 94 1015.5
20260904112418 24 208 1.6 1.6 0.00 0.00 0.00 94 1015.2
20260904111913 24 206 1.6 3.2 0.00 0.00 0.00 94 1014.9
20260904111409 24 201 3.2 3.2 0.00 0.00 0.00 93 1015.0
20260904110905 24 212 3.2 4.8 0.00 0.00 0.00 93 1015.0
20260904110403 24 208 1.6 3.2 0.00 0.00 0.00 93 1015.0
20260904105858 24 210 1.6 3.2 0.00 0.00 0.00 93 1015.1
20260904105353 24 206 1.6 1.6 0.00 0.00 0.00 92 1015.1
20260904104848 24 174 1.6 1.6 0.00 0.00 0.00 92 1014.9
20260904104344 24 148 3.2 3.2 0.00 0.00 0.00 91 1014.9
20260904103841 24 182 4.8 4.8 0.00 0.00 0.00 91 1015.0
20260904103341 24 173 1.6 1.6 0.00 0.00 0.00 91 1015.0
20260904102837 24 181 0.0 1.6 0.00 0.00 0.00 90 1014.9
20260904102332 25 142 1.6 1.6 0.00 0.00 0.00 90 1014.9
20260904101828 25 185 0.0 0.0 0.00 0.00 0.00 90 1014.8
20260904101324 25 177 0.0 1.6 0.00 0.00 0.00 89 1014.8
20260904100819 25 162 3.2 3.2 0.00 0.00 0.00 89 1015.0
20260904100315 25 201 1.6 1.6 0.00 0.00 0.00 89 1014.9
20260904095816 25 156 1.6 1.6 0.00 0.00 0.00 89 1014.6
20260904095310 25 171 1.6 3.2 0.00 0.00 0.00 89 1014.8
20260904094806 25 160 1.6 1.6 0.00 0.00 0.00 89 1014.7
20260904094301 25 164 1.6 3.2 0.00 0.00 0.00 89 1014.7
20260904093757 25 184 0.0 0.0 0.00 0.00 0.00 89 1014.7
20260904093257 25 198 0.0 0.0 0.00 0.00 0.00 88 1014.8
20260904092752 25 193 0.0 0.0 0.00 0.00 0.00 88 1014.6
20260904092249 25 199 0.0 0.0 0.00 0.00 0.00 88 1014.7
20260904091744 25 201 0.0 0.0 0.00 0.00 0.00 87 1014.6
20260904091239 25 200 0.0 0.0 0.00 0.00 0.00 87 1014.8
20260904090735 25 181 1.6 1.6 0.00 0.00 0.00 87 1014.8
20260904090231 25 194 0.0 0.0 0.00 0.00 0.00 87 1014.6
20260904085730 25 198 0.0 1.6 0.00 0.00 0.00 87 1014.7
20260904085225 25 200 0.0 0.0 0.00 0.00 0.00 87 1014.8
20260904084720 25 183 0.0 0.0 0.00 0.00 0.00 87 1014.7
20260904084216 25 191 1.6 1.6 0.00 0.00 0.00 86 1014.5
20260904083713 25 178 4.8 4.8 0.00 0.00 0.00 86 1014.8
20260904083209 25 205 0.0 0.0 0.00 0.00 0.00 86 1014.6
20260904082709 25 211 1.6 1.6 0.00 0.00 0.00 86 1014.6
20260904082204 25 160 1.6 3.2 0.00 0.00 0.00 86 1014.6
20260904081659 25 160 1.6 3.2 0.00 0.00 0.00 85 1014.6
20260904081154 25 178 1.6 1.6 0.00 0.00 0.00 85 1014.6
20260904080650 25 221 0.0 1.6 0.00 0.00 0.00 85 1014.4
20260904080146 25 180 1.6 1.6 0.00 0.00 0.00 85 1014.6
20260904075643 25 192 4.8 8.0 0.00 0.00 0.00 84 1014.6
20260904075137 25 169 3.2 3.2 0.00 0.00 0.00 84 1014.6
20260904074636 25 194 0.0 1.6 0.00 0.00 0.00 84 1014.5
20260904074131 26 199 0.0 0.0 0.00 0.00 0.00 84 1014.5
20260904073626 26 190 1.6 3.2 0.00 0.00 0.00 84 1014.5
20260904073122 26 194 0.0 0.0 0.00 0.00 0.00 83 1014.5
20260904072618 26 201 0.0 1.6 0.00 0.00 0.00 83 1014.7
20260904072112 26 168 1.6 1.6 0.00 0.00 0.00 82 1014.6
20260904071603 26 200 0.0 1.6 0.00 0.00 0.00 82 1014.6
20260904071057 26 166 3.2 4.8 0.00 0.00 0.00 82 1014.6
20260904070556 26 156 4.8 8.0 0.00 0.00 0.00 82 1014.6
20260904070052 26 187 3.2 3.2 0.00 0.00 0.00 81 1014.7
20260904065546 26 190 3.2 4.8 0.00 0.00 0.00 81 1014.9
20260904065042 26 180 3.2 4.8 0.00 0.00 0.00 81 1015.0
20260904064538 26 195 0.0 0.0 0.00 0.00 0.00 81 1014.9
20260904064032 26 196 3.2 3.2 0.00 0.00 0.00 80 1015.0
20260904063530 26 192 0.0 0.0 0.00 0.00 0.00 80 1014.9
20260904063029 26 197 3.2 3.2 0.00 0.00 0.00 80 1014.6
20260904062526 26 186 0.0 1.6 0.00 0.00 0.00 80 1014.8
20260904062021 26 175 4.8 4.8 0.00 0.00 0.00 80 1014.7
20260904061517 26 192 3.2 3.2 0.00 0.00 0.00 80 1014.8
20260904061013 26 196 4.8 4.8 0.00 0.00 0.00 79 1014.7
20260904060509 26 194 4.8 8.0 0.00 0.00 0.00 79 1014.8
20260904060005 26 207 3.2 4.8 0.00 0.00 0.00 79 1014.7
20260904055500 26 190 3.2 4.8 0.00 0.00 0.00 79 1014.7
20260904054955 26 172 4.8 4.8 0.00 0.00 0.00 79 1014.7
20260904054451 26 204 6.4 8.0 0.00 0.00 0.00 78 1014.6
20260904053947 26 183 1.6 1.6 0.00 0.00 0.00 78 1014.6
20260904053446 26 198 1.6 1.6 0.00 0.00 0.00 77 1014.8
20260904052942 26 192 0.0 0.0 0.00 0.00 0.00 76 1014.6
20260904052438 26 173 1.6 3.2 0.00 0.00 0.00 76 1014.9
20260904051933 26 168 1.6 1.6 0.00 0.00 0.00 76 1014.6
20260904051430 26 197 1.6 3.2 0.00 0.00 0.00 76 1014.4
20260904050929 26 218 4.8 8.0 0.00 0.00 0.00 75 1014.7
20260904050426 26 180 1.6 3.2 0.00 0.00 0.00 75 1014.6
20260904045926 26 181 1.6 1.6 0.00 0.00 0.00 75 1014.7
20260904045421 26 205 0.0 0.0 0.00 0.00 0.00 75 1014.6
20260904044921 26 138 3.2 3.2 0.00 0.00 0.00 75 1014.7
20260904044417 27 197 6.4 9.7 0.00 0.00 0.00 75 1014.7
20260904043913 27 184 4.8 4.8 0.00 0.00 0.00 76 1014.8
20260904043410 27 198 3.2 4.8 0.00 0.00 0.00 75 1014.6
20260904042904 27 182 1.6 1.6 0.00 0.00 0.00 74 1014.6
20260904042401 27 217 1.6 4.8 0.00 0.00 0.00 74 1014.9
20260904041855 27 184 1.6 1.6 0.00 0.00 0.00 74 1014.6
20260904041352 27 185 3.2 4.8 0.00 0.00 0.00 73 1014.8
20260904040848 27 212 4.8 9.7 0.00 0.00 0.00 73 1014.8
20260904040342 27 188 3.2 3.2 0.00 0.00 0.00 73 1014.9
20260904035839 27 178 3.2 3.2 0.00 0.00 0.00 72 1014.9
20260904035335 27 181 3.2 4.8 0.00 0.00 0.00 72 1014.8
20260904034833 27 183 4.8 8.0 0.00 0.00 0.00 71 1014.7
20260904034329 27 188 3.2 3.2 0.00 0.00 0.00 71 1014.7
20260904033825 27 181 6.4 8.0 0.00 0.00 0.00 71 1014.8
20260904033321 27 177 0.0 1.6 0.00 0.00 0.00 71 1014.7
20260904032817 27 189 4.8 4.8 0.00 0.00 0.00 71 1014.8
20260904032316 27 192 1.6 3.2 0.00 0.00 0.00 71 1015.2
20260904031811 27 198 8.0 14.5 0.00 0.00 0.00 71 1014.8
20260904031306 27 185 1.6 3.2 0.00 0.00 0.00 71 1014.6
20260904030802 27 182 3.2 4.8 0.00 0.00 0.00 71 1014.6
20260904030257 27 157 8.0 12.9 0.00 0.00 0.00 71 1014.8
20260904025754 27 166 1.6 3.2 0.00 0.00 0.00 71 1014.6
20260904025249 28 155 1.6 3.2 0.00 0.00 0.00 71 1014.7
20260904024744 28 195 3.2 3.2 0.00 0.00 0.00 71 1014.5
20260904024239 28 170 4.8 9.7 0.00 0.00 0.00 71 1014.6
20260904023735 28 222 3.2 4.8 0.00 0.00 0.00 72 1014.1
20260904023231 28 201 8.0 11.3 0.00 0.00 0.00 72 1014.1
20260904022730 28 152 3.2 3.2 0.00 0.00 0.00 74 1014.1
20260904022228 28 169 6.4 9.7 0.00 0.00 0.00 74 1013.9
20260904021723 28 213 8.0 11.3 0.00 0.00 0.00 74 1013.9
20260904021218 28 201 3.2 3.2 0.00 0.00 0.00 74 1013.6
20260904020714 28 188 1.6 1.6 0.00 0.00 0.00 74 1013.8
20260904020213 28 203 4.8 11.3 0.00 0.00 0.00 73 1013.8
20260904015712 28 160 4.8 8.0 0.00 0.00 0.00 73 1013.6
20260904015207 28 183 4.8 4.8 0.00 0.00 0.00 73 1013.4
20260904014705 28 166 3.2 4.8 0.00 0.00 0.00 73 1013.4
20260904014200 28 172 3.2 4.8 0.00 0.00 0.00 74 1013.4
20260904013658 28 19 1.6 3.2 0.00 0.00 0.00 73 1013.4
20260904013153 29 209 3.2 4.8 0.00 0.00 0.00 73 1013.2
20260904012649 29 167 3.2 3.2 0.00 0.00 0.00 72 1013.4
20260904012147 29 189 3.2 8.0 0.00 0.00 0.00 72 1013.2
20260904011647 29 192 1.6 1.6 0.00 0.00 0.00 72 1013.1
20260904011143 29 192 0.0 1.6 0.00 0.00 0.00 71 1013.0
20260904010638 29 202 1.6 1.6 0.00 0.00 0.00 70 1013.2
20260904010134 30 193 1.6 1.6 0.00 0.00 0.00 70 1012.7
20260904005629 30 156 3.2 4.8 0.00 0.00 0.00 69 1013.1
20260904005125 30 116 0.0 3.2 0.00 0.00 0.00 69 1013.1
20260904004620 30 140 3.2 3.2 0.00 0.00 0.00 68 1013.1
20260904004120 30 199 3.2 3.2 0.00 0.00 0.00 68 1013.2
20260904003616 30 157 4.8 8.0 0.00 0.00 0.00 68 1013.0
20260904003112 30 121 3.2 4.8 0.00 0.00 0.00 67 1012.9
20260904002608 30 130 1.6 3.2 0.00 0.00 0.00 66 1013.0
20260904002102 30 149 3.2 4.8 0.00 0.00 0.00 64 1012.9
20260904001557 30 177 3.2 3.2 0.00 0.00 0.00 64 1013.0
20260904001056 30 193 4.8 8.0 0.00 0.00 0.00 65 1012.8
20260904000550 30 187 1.6 3.2 0.00 0.00 0.00 66 1013.0
20260904000041 31 128 4.8 8.0 0.00 0.00 0.00 65 1012.6
20260903235536 31 185 4.8 4.8 0.00 0.00 0.00 64 1012.9
20260903235032 31 162 6.4 11.3 0.00 0.00 0.00 64 1012.9
20260903234527 31 234 3.2 4.8 0.00 0.00 0.00 65 1012.8
20260903234022 31 103 4.8 4.8 0.00 0.00 0.00 65 1012.6
20260903233518 31 179 4.8 8.0 0.00 0.00 0.00 66 1012.8
20260903233014 31 175 4.8 4.8 0.00 0.00 0.00 65 1012.5
20260903232509 31 111 4.8 4.8 0.00 0.00 0.00 65 1012.5
20260903232008 31 141 3.2 8.0 0.00 0.00 0.00 65 1012.4
20260903231502 31 130 3.2 8.0 0.00 0.00 0.00 65 1012.6
20260903230957 31 158 3.2 4.8 0.00 0.00 0.00 65 1012.5
20260903230454 32 150 6.4 9.7 0.00 0.00 0.00 64 1012.5
20260903225950 32 99 4.8 8.0 0.00 0.00 0.00 64 1012.6
20260903225444 32 187 1.6 1.6 0.00 0.00 0.00 64 1012.4
20260903224935 32 179 4.8 8.0 0.00 0.00 0.00 62 1012.5
20260903224431 32 150 4.8 4.8 0.00 0.00 0.00 62 1012.4
20260903223927 32 179 6.4 8.0 0.00 0.00 0.00 60 1012.5
20260903223426 33 133 4.8 4.8 0.00 0.00 0.00 60 1012.2
20260903222925 32 183 3.2 4.8 0.00 0.00 0.00 60 1012.5
20260903222421 33 161 6.4 8.0 0.00 0.00 0.00 60 1012.4
20260903221920 33 192 0.0 0.0 0.00 0.00 0.00 58 1012.2
20260903221420 33 163 1.6 1.6 0.00 0.00 0.00 58 1012.3
20260903220918 33 186 8.0 9.7 0.00 0.00 0.00 59 1012.4
20260903220412 33 103 3.2 4.8 0.00 0.00 0.00 58 1012.4
20260903215909 33 177 1.6 1.6 0.00 0.00 0.00 58 1012.6
20260903215407 33 175 6.4 11.3 0.00 0.00 0.00 58 1012.5
20260903214905 33 191 4.8 8.0 0.00 0.00 0.00 58 1012.5
20260903214401 33 164 4.8 4.8 0.00 0.00 0.00 59 1012.7
20260903213901 33 156 1.6 3.2 0.00 0.00 0.00 60 1012.8
20260903213356 32 214 1.6 1.6 0.00 0.00 0.00 60 1012.8
20260903212852 32 134 3.2 4.8 0.00 0.00 0.00 61 1012.9
20260903212347 32 132 4.8 8.0 0.00 0.00 0.00 60 1012.7
20260903211846 32 177 11.3 14.5 0.00 0.00 0.00 61 1013.0
20260903211343 33 209 11.3 14.5 0.00 0.00 0.00 61 1013.1
20260903210838 32 190 4.8 4.8 0.00 0.00 0.00 61 1013.1
20260903210333 32 171 6.4 9.7 0.00 0.00 0.00 62 1013.0
20260903205833 32 117 4.8 9.7 0.00 0.00 0.00 62 1013.0
20260903205333 32 206 16.1 20.9 0.00 0.00 0.00 61 1013.2
20260903204828 32 188 1.6 4.8 0.00 0.00 0.00 62 1013.1
20260903204324 32 109 6.4 9.7 0.00 0.00 0.00 61 1013.2
20260903203819 32 182 6.4 9.7 0.00 0.00 0.00 62 1013.3
20260903203315 32 206 4.8 4.8 0.00 0.00 0.00 63 1013.5
20260903202814 32 207 3.2 4.8 0.00 0.00 0.00 62 1013.6
20260903202311 32 182 3.2 3.2 0.00 0.00 0.00 64 1013.6
20260903201810 31 167 6.4 11.3 0.00 0.00 0.00 65 1013.7
20260903201305 31 202 1.6 1.6 0.00 0.00 0.00 65 1013.8
20260903200804 31 213 8.0 8.0 0.00 0.00 0.00 65 1013.7
20260903200259 32 65 4.8 8.0 0.00 0.00 0.00 65 1013.9